Zurück zum Katalog

WESTFORD NEEDLES

AktivPO
NORAD 21660·DEBRIS·🇺🇸 United States

Gestartet May 9, 1963 von Vandenberg Space Force Base

Loading…

Nächste Überflüge (nächste 24 Stunden)

TLE

VeraltetSource: Space-Track

Epoche: Aug 22, 2026, 00:36 UTC

1 21660U 63014FG  26234.02531104 -.00000015  00000-0 -22211-2 0  9990
2 21660  86.7466 252.8431 1390589 294.9360  72.8120  8.77259631 71474

Verfolge WESTFORD NEEDLES in Echtzeit mit AllMySat

Download on the App Store